Tracking 31027 objects as of 19-Jul-2025
HD Live streaming from Space Station
objects crossing your sky now

STARLINK-5790

Track STARLINK-5790 now!
10-day predictions
STARLINK-5790 is classified as:


NORAD ID: 56036
Int'l Code: 2023-042BC
Perigee: 565.0 km
Apogee: 567.5 km
Inclination: 43.0 °
Period: 95.8 minutes
Semi major axis: 6937 km
RCS: Unknown
Launch date: March 24, 2022
Source: United States (US)
Launch site: AIR FORCE EASTERN TEST RANGE (AFETR)
Your satellite tracking list
CZ-4C DEB
Track 1 satellite(s)




NASA's NSSDC Master Catalog

Two Line Element Set (TLE):
1 56036U 23042BC  25199.82239350 -.00001320  00000-0 -82657-4 0  9999
2 56036  43.0046 233.6094 0001809 283.2919  76.7722 15.02535018128224
Source of the keplerian elements: AFSPC